Voltar ao catálogo

DELTA 2 R/B(1)

AtivoMEO
NORAD 34382·ROCKET BODY·🇺🇸 United States

Lançado Mar 7, 2009 de Cape Canaveral Space Force Station

Loading…

Próximas Passagens (próximas 24 horas)

TLE

AtualizadoSource: Space-Track

Época: Sep 14, 2026, 02:12 UTC

1 34382U 09011C   26257.09189859  .00000031  00000-0  36015-2 0  9993
2 34382  28.5598 292.0248 2279249 303.5174  47.7970  7.34326062470350

Acompanhe DELTA 2 R/B(1) em tempo real com AllMySat

Download on the App Store